QPF
0.00 0.00 0.00 0.00 0.00 0.00 0.00 0.00 0.00 0.00 0.00 0.00 0.00 0.00 0.00 0.00 0.00 0.00 0.00 0.00 0.00 0.00 0.00 0.01 0.02 0.02 0.02 0.02 0.02 0.02 0.02 0.01 0.01 0.02 0.02 0.05 0.07 0.05 0.04 0.05 0.06 0.07 0.10 0.09 0.08 0.07 0.06 0.05 0.03
0.00 0.00 0.00 0.00 0.00 0.00 0.00 0.00 0.00 0.00 0.00 0.00 0.00 0.00 0.00 0.00 0.00 0.00 0.00 0.00 0.00 0.00 0.00 0.01 0.02 0.02 0.02 0.02 0.02 0.03 0.02 0.02 0.02 0.02 0.02 0.02 0.03 0.04 0.05 0.04 0.05 0.08 0.13 0.10 0.08 0.08 0.06 0.04 0.03
0.00 0.00 0.00 0.00 0.00 0.00 0.00 0.00 0.00 0.00 0.00 0.00 0.00 0.00 0.00 0.00 0.00 0.00 0.00 0.00 0.00 0.00 0.00 0.01 0.02 0.03 0.03 0.03 0.02 0.03 0.03 0.02 0.02 0.02 0.02 0.02 0.02 0.02 0.03 0.04 0.05 0.07 0.09 0.07 0.06 0.05 0.05 0.05 0.04
0.00 0.00 0.00 0.00 0.00 0.00 0.00 0.00 0.00 0.00 0.00 0.00 0.00 0.00 0.00 0.00 0.00 0.00 0.00 0.00 0.00 0.01 0.01 0.01 0.02 0.03 0.03 0.03 0.03 0.03 0.03 0.02 0.02 0.03 0.03 0.02 0.02 0.03 0.03 0.03 0.04 0.05 0.06 0.04 0.03 0.03 0.04 0.05 0.04
0.00 0.00 0.00 0.00 0.00 0.00 0.00 0.00 0.00 0.00 0.00 0.00 0.00 0.00 0.00 0.00 0.00 0.00 0.00 0.00 0.00 0.01 0.01 0.01 0.02 0.03 0.03 0.04 0.03 0.03 0.03 0.02 0.02 0.02 0.02 0.02 0.02 0.03 0.03 0.02 0.02 0.04 0.05 0.04 0.03 0.03 0.03 0.05 0.04
0.00 0.00 0.00 0.00 0.00 0.00 0.00 0.00 0.00 0.00 0.00 0.00 0.00 0.00 0.00 0.00 0.00 0.00 0.00 0.00 0.00 0.01 0.01 0.01 0.03 0.03 0.03 0.04 0.03 0.02 0.02 0.02 0.02 0.01 0.01 0.02 0.03 0.02 0.02 0.02 0.02 0.02 0.05 0.06 0.04 0.03 0.02 0.03 0.03
0.00 0.00 0.00 0.00 0.00 0.00 0.00 0.00 0.00 0.00 0.00 0.00 0.00 0.00 0.00 0.00 0.00 0.00 0.00 0.00 0.01 0.01 0.01 0.02 0.03 0.03 0.03 0.03 0.03 0.02 0.02 0.02 0.02 0.01 0.01 0.02 0.03 0.03 0.02 0.01 0.02 0.02 0.03 0.05 0.07 0.04 0.02 0.03 0.03
0.00 0.00 0.00 0.00 0.00 0.00 0.00 0.00 0.00 0.00 0.00 0.00 0.00 0.00 0.00 0.00 0.00 0.00 0.00 0.01 0.01 0.01 0.01 0.02 0.03 0.03 0.03 0.04 0.03 0.03 0.02 0.02 0.02 0.02 0.01 0.01 0.02 0.03 0.03 0.01 0.01 0.02 0.02 0.02 0.04 0.05 0.03 0.03 0.03
0.00 0.00 0.00 0.00 0.00 0.00 0.00 0.00 0.00 0.00 0.00 0.00 0.00 0.00 0.00 0.00 0.00 0.00 0.00 0.01 0.02 0.01 0.01 0.02 0.03 0.04 0.04 0.04 0.04 0.03 0.02 0.01 0.02 0.03 0.02 0.01 0.02 0.03 0.04 0.02 0.02 0.02 0.02 0.02 0.02 0.03 0.03 0.02 0.02
0.00 0.00 0.00 0.00 0.00 0.00 0.00 0.00 0.00 0.00 0.00 0.00 0.00 0.00 0.00 0.00 0.00 0.00 0.00 0.01 0.01 0.02 0.02 0.02 0.02 0.04 0.04 0.04 0.05 0.04 0.02 0.02 0.02 0.02 0.02 0.01 0.02 0.02 0.03 0.03 0.02 0.02 0.02 0.03 0.02 0.02 0.02 0.02 0.02
0.00 0.00 0.00 0.00 0.00 0.00 0.00 0.00 0.00 0.00 0.00 0.00 0.00 0.00 0.00 0.00 0.00 0.00 0.00 0.00 0.01 0.01 0.01 0.01 0.02 0.03 0.04 0.04 0.04 0.04 0.03 0.03 0.03 0.02 0.02 0.01 0.01 0.02 0.03 0.03 0.03 0.03 0.03 0.03 0.03 0.02 0.01 0.01 0.01
0.00 0.00 0.00 0.00 0.00 0.00 0.00 0.00 0.00 0.00 0.00 0.00 0.00 0.00 0.00 0.00 0.00 0.00 0.00 0.01 0.01 0.01 0.01 0.01 0.02 0.03 0.04 0.04 0.02 0.03 0.03 0.03 0.03 0.03 0.02 0.01 0.01 0.01 0.01 0.03 0.03 0.03 0.04 0.04 0.04 0.02 0.01 0.01 0.01
0.00 0.00 0.00 0.00 0.00 0.00 0.00 0.00 0.00 0.00 0.00 0.00 0.00 0.00 0.00 0.00 0.00 0.00 0.00 0.01 0.01 0.01 0.01 0.01 0.02 0.03 0.03 0.04 0.02 0.02 0.02 0.02 0.02 0.03 0.02 0.01 0.01 0.01 0.01 0.01 0.02 0.03 0.03 0.04 0.04 0.03 0.02 0.01 0.01
0.00 0.00 0.00 0.00 0.00 0.00 0.00 0.00 0.00 0.00 0.00 0.00 0.00 0.00 0.00 0.00 0.00 0.00 0.00 0.00 0.00 0.01 0.01 0.01 0.02 0.03 0.03 0.03 0.02 0.02 0.02 0.02 0.02 0.02 0.02 0.01 0.01 0.00 0.00 0.00 0.01 0.01 0.02 0.03 0.03 0.04 0.04 0.03 0.01
0.00 0.00 0.00 0.00 0.00 0.00 0.00 0.00 0.00 0.00 0.00 0.00 0.00 0.00 0.00 0.00 0.00 0.00 0.00 0.00 0.00 0.01 0.01 0.01 0.01 0.02 0.03 0.03 0.02 0.02 0.02 0.02 0.02 0.01 0.02 0.02 0.01 0.01 0.00 0.00 0.00 0.00 0.01 0.01 0.01 0.02 0.04 0.05 0.03
0.00 0.00 0.00 0.00 0.00 0.00 0.00 0.00 0.00 0.00 0.00 0.00 0.00 0.00 0.00 0.00 0.00 0.00 0.00 0.00 0.00 0.00 0.00 0.01 0.02 0.02 0.03 0.03 0.03 0.03 0.01 0.02 0.02 0.02 0.02 0.02 0.02 0.01 0.01 0.00 0.00 0.00 0.00 0.00 0.00 0.01 0.02 0.03 0.04
0.00 0.00 0.00 0.00 0.00 0.00 0.00 0.00 0.00 0.00 0.00 0.00 0.00 0.00 0.00 0.00 0.00 0.00 0.00 0.00 0.00 0.00 0.00 0.01 0.02 0.03 0.03 0.03 0.03 0.03 0.02 0.02 0.03 0.03 0.03 0.02 0.02 0.02 0.01 0.01 0.01 0.00 0.00 0.00 0.00 0.00 0.01 0.02 0.02
0.00 0.00 0.00 0.00 0.00 0.00 0.00 0.00 0.00 0.00 0.00 0.00 0.00 0.00 0.00 0.00 0.00 0.00 0.00 0.00 0.00 0.00 0.00 0.01 0.02 0.03 0.04 0.04 0.03 0.04 0.04 0.04 0.04 0.04 0.03 0.03 0.03 0.03 0.03 0.01 0.01 0.01 0.01 0.01 0.00 0.00 0.01 0.01 0.02
0.00 0.00 0.00 0.00 0.00 0.00 0.00 0.00 0.00 0.00 0.00 0.00 0.00 0.00 0.00 0.00 0.00 0.00 0.00 0.00 0.00 0.00 0.00 0.00 0.02 0.04 0.04 0.04 0.04 0.03 0.04 0.04 0.05 0.05 0.04 0.04 0.04 0.04 0.03 0.02 0.01 0.01 0.01 0.01 0.01 0.01 0.01 0.01 0.02
0.00 0.00 0.00 0.00 0.00 0.00 0.00 0.00 0.00 0.00 0.00 0.00 0.00 0.00 0.00 0.00 0.00 0.00 0.00 0.00 0.00 0.00 0.00 0.00 0.01 0.03 0.05 0.05 0.05 0.03 0.02 0.04 0.04 0.05 0.04 0.04 0.04 0.04 0.04 0.02 0.01 0.01 0.01 0.01 0.01 0.01 0.01 0.01 0.02
0.00 0.00 0.00 0.00 0.00 0.00 0.00 0.00 0.00 0.00 0.00 0.00 0.00 0.00 0.00 0.00 0.00 0.00 0.00 0.01 0.01 0.01 0.01 0.01 0.01 0.02 0.04 0.05 0.06 0.05 0.04 0.03 0.04 0.05 0.06 0.05 0.04 0.03 0.03 0.03 0.02 0.01 0.01 0.01 0.01 0.01 0.01 0.01 0.02
0.00 0.00 0.00 0.00 0.00 0.00 0.00 0.01 0.00 0.00 0.00 0.00 0.00 0.00 0.00 0.00 0.00 0.01 0.00 0.01 0.01 0.01 0.01 0.01 0.01 0.01 0.03 0.05 0.06 0.07 0.07 0.04 0.02 0.04 0.06 0.07 0.06 0.04 0.03 0.03 0.02 0.01 0.02 0.02 0.01 0.01 0.01 0.02 0.02
0.00 0.00 0.00 0.00 0.00 0.01 0.00 0.01 0.00 0.00 0.00 0.00 0.00 0.00 0.00 0.00 0.00 0.01 0.01 0.01 0.01 0.01 0.01 0.01 0.02 0.02 0.03 0.04 0.05 0.06 0.06 0.05 0.03 0.03 0.05 0.07 0.07 0.07 0.06 0.04 0.03 0.01 0.01 0.01 0.01 0.02 0.01 0.02 0.02
0.00 0.00 0.00 0.00 0.01 0.01 0.00 0.00 0.00 0.00 0.00 0.00 0.00 0.00 0.00 0.00 0.00 0.00 0.01 0.01 0.01 0.01 0.01 0.01 0.02 0.02 0.03 0.03 0.03 0.04 0.04 0.04 0.03 0.03 0.04 0.06 0.06 0.06 0.05 0.05 0.04 0.02 0.01 0.01 0.01 0.01 0.02 0.02 0.02
0.01 0.01 0.01 0.01 0.01 0.00 0.00 0.00 0.00 0.00 0.00 0.00 0.00 0.00 0.00 0.00 0.00 0.00 0.00 0.01 0.02 0.01 0.01 0.02 0.02 0.03 0.03 0.02 0.02 0.02 0.03 0.03 0.04 0.03 0.03 0.05 0.06 0.06 0.04 0.03 0.03 0.02 0.01 0.01 0.01 0.01 0.01 0.02 0.02
0.01 0.01 0.01 0.01 0.00 0.00 0.00 0.00 0.00 0.00 0.00 0.00 0.00 0.00 0.00 0.00 0.01 0.00 0.00 0.01 0.02 0.02 0.02 0.02 0.03 0.05 0.04 0.03 0.02 0.02 0.02 0.02 0.03 0.03 0.03 0.04 0.05 0.06 0.05 0.03 0.02 0.02 0.01 0.01 0.00 0.00 0.01 0.01 0.02
0.01 0.01 0.01 0.01 0.01 0.00 0.00 0.00 0.00 0.00 0.00 0.00 0.00 0.00 0.00 0.01 0.01 0.01 0.00 0.01 0.01 0.02 0.02 0.03 0.04 0.06 0.06 0.04 0.03 0.03 0.03 0.03 0.02 0.03 0.03 0.04 0.04 0.05 0.05 0.05 0.04 0.03 0.01 0.01 0.01 0.00 0.00 0.00 0.01
0.01 0.01 0.01 0.01 0.01 0.01 0.00 0.00 0.00 0.00 0.00 0.00 0.00 0.00 0.00 0.00 0.01 0.01 0.01 0.01 0.01 0.02 0.02 0.03 0.05 0.08 0.09 0.07 0.06 0.04 0.03 0.04 0.03 0.03 0.03 0.03 0.04 0.05 0.05 0.06 0.06 0.05 0.03 0.01 0.01 0.01 0.00 0.00 0.01
0.01 0.02 0.02 0.02 0.01 0.01 0.00 0.00 0.00 0.00 0.00 0.00 0.00 0.00 0.00 0.00 0.01 0.01 0.01 0.01 0.01 0.02 0.03 0.03 0.05 0.07 0.07 0.07 0.06 0.06 0.04 0.04 0.04 0.04 0.03 0.03 0.03 0.04 0.04 0.05 0.06 0.06 0.04 0.02 0.02 0.01 0.01 0.01 0.00
0.02 0.02 0.03 0.03 0.02 0.01 0.01 0.00 0.00 0.00 0.00 0.00 0.00 0.00 0.00 0.00 0.01 0.02 0.01 0.01 0.01 0.02 0.02 0.03 0.04 0.05 0.06 0.06 0.05 0.06 0.05 0.04 0.04 0.03 0.03 0.04 0.04 0.03 0.04 0.04 0.05 0.06 0.06 0.03 0.02 0.01 0.01 0.01 0.00
MSLP
1015.68 1015.83 1016.02 1016.20 1016.35 1016.42 1016.42 1016.35 1016.24 1016.16 1016.16 1016.28 1016.54 1016.95 1017.46 1018.02 1018.56 1019.01 1019.35 1019.56 1019.66 1019.70 1019.75 1019.84 1020.01 1020.28 1020.61 1020.96 1021.30 1021.56 1021.74 1021.82 1021.84 1021.82 1021.80 1021.80 1021.85 1021.94 1022.04 1022.12 1022.18 1022.18 1022.13 1022.06 1021.97 1021.88 1021.81 1021.76 1021.71
1015.74 1015.88 1016.05 1016.22 1016.34 1016.40 1016.38 1016.31 1016.21 1016.14 1016.16 1016.30 1016.59 1017.01 1017.53 1018.10 1018.64 1019.09 1019.42 1019.61 1019.71 1019.75 1019.80 1019.90 1020.09 1020.38 1020.73 1021.12 1021.48 1021.79 1022.00 1022.13 1022.18 1022.20 1022.21 1022.24 1022.30 1022.39 1022.48 1022.56 1022.59 1022.59 1022.54 1022.47 1022.40 1022.35 1022.31 1022.28 1022.25
1015.80 1015.91 1016.04 1016.16 1016.25 1016.28 1016.26 1016.19 1016.12 1016.09 1016.16 1016.35 1016.69 1017.15 1017.71 1018.29 1018.84 1019.29 1019.61 1019.81 1019.90 1019.94 1019.98 1020.08 1020.28 1020.57 1020.93 1021.32 1021.70 1022.03 1022.28 1022.45 1022.55 1022.60 1022.65 1022.71 1022.78 1022.86 1022.94 1022.99 1023.01 1022.98 1022.93 1022.87 1022.82 1022.78 1022.78 1022.78 1022.76
1015.85 1015.91 1015.98 1016.05 1016.09 1016.09 1016.06 1016.02 1015.99 1016.02 1016.15 1016.42 1016.82 1017.34 1017.93 1018.55 1019.11 1019.57 1019.91 1020.11 1020.21 1020.25 1020.30 1020.40 1020.58 1020.87 1021.22 1021.61 1021.99 1022.34 1022.61 1022.81 1022.95 1023.05 1023.13 1023.21 1023.29 1023.37 1023.43 1023.46 1023.45 1023.41 1023.35 1023.30 1023.26 1023.25 1023.26 1023.29 1023.29
1015.88 1015.89 1015.90 1015.91 1015.90 1015.88 1015.85 1015.83 1015.85 1015.94 1016.15 1016.49 1016.95 1017.53 1018.16 1018.80 1019.39 1019.87 1020.22 1020.45 1020.57 1020.63 1020.70 1020.80 1020.99 1021.26 1021.60 1021.98 1022.36 1022.71 1023.00 1023.23 1023.40 1023.54 1023.65 1023.76 1023.85 1023.93 1023.98 1023.99 1023.97 1023.92 1023.85 1023.80 1023.77 1023.77 1023.81 1023.84 1023.85
1015.89 1015.87 1015.84 1015.80 1015.75 1015.70 1015.67 1015.67 1015.73 1015.88 1016.15 1016.55 1017.06 1017.67 1018.34 1019.00 1019.60 1020.11 1020.48 1020.74 1020.90 1021.01 1021.11 1021.24 1021.44 1021.71 1022.04 1022.41 1022.78 1023.13 1023.43 1023.68 1023.89 1024.06 1024.21 1024.34 1024.46 1024.54 1024.59 1024.60 1024.57 1024.52 1024.45 1024.40 1024.37 1024.38 1024.41 1024.45 1024.46
1015.91 1015.87 1015.81 1015.73 1015.66 1015.59 1015.56 1015.57 1015.66 1015.85 1016.15 1016.58 1017.12 1017.74 1018.41 1019.07 1019.68 1020.20 1020.61 1020.91 1021.13 1021.29 1021.44 1021.62 1021.86 1022.15 1022.48 1022.85 1023.22 1023.56 1023.88 1024.15 1024.39 1024.60 1024.79 1024.95 1025.09 1025.20 1025.26 1025.28 1025.25 1025.20 1025.13 1025.07 1025.04 1025.04 1025.06 1025.08 1025.07
1015.96 1015.91 1015.83 1015.74 1015.64 1015.57 1015.53 1015.55 1015.64 1015.84 1016.14 1016.56 1017.09 1017.69 1018.34 1018.99 1019.59 1020.13 1020.57 1020.92 1021.20 1021.43 1021.65 1021.89 1022.18 1022.50 1022.86 1023.24 1023.62 1023.98 1024.31 1024.60 1024.87 1025.12 1025.34 1025.54 1025.71 1025.85 1025.94 1025.97 1025.96 1025.91 1025.84 1025.78 1025.73 1025.70 1025.69 1025.68 1025.65
1016.03 1015.99 1015.90 1015.80 1015.70 1015.61 1015.56 1015.57 1015.65 1015.82 1016.10 1016.48 1016.96 1017.52 1018.12 1018.74 1019.33 1019.87 1020.34 1020.74 1021.09 1021.40 1021.70 1022.02 1022.36 1022.74 1023.14 1023.55 1023.95 1024.33 1024.68 1025.00 1025.29 1025.57 1025.83 1026.06 1026.27 1026.44 1026.55 1026.61 1026.61 1026.57 1026.51 1026.43 1026.36 1026.31 1026.26 1026.22 1026.15
1016.11 1016.07 1015.99 1015.89 1015.78 1015.68 1015.61 1015.59 1015.64 1015.76 1015.99 1016.31 1016.72 1017.21 1017.76 1018.34 1018.91 1019.45 1019.95 1020.41 1020.82 1021.21 1021.60 1022.00 1022.42 1022.86 1023.31 1023.76 1024.19 1024.59 1024.96 1025.31 1025.63 1025.93 1026.21 1026.48 1026.71 1026.91 1027.05 1027.14 1027.16 1027.14 1027.08 1026.99 1026.90 1026.81 1026.72 1026.64 1026.55
1016.17 1016.14 1016.06 1015.96 1015.84 1015.73 1015.64 1015.58 1015.57 1015.64 1015.79 1016.03 1016.37 1016.79 1017.29 1017.82 1018.38 1018.93 1019.46 1019.96 1020.44 1020.91 1021.38 1021.86 1022.36 1022.87 1023.37 1023.87 1024.33 1024.76 1025.16 1025.52 1025.85 1026.17 1026.47 1026.75 1027.01 1027.23 1027.40 1027.51 1027.57 1027.56 1027.50 1027.41 1027.30 1027.18 1027.06 1026.95 1026.82
1016.18 1016.14 1016.06 1015.96 1015.84 1015.71 1015.59 1015.49 1015.42 1015.41 1015.48 1015.64 1015.91 1016.27 1016.71 1017.22 1017.76 1018.33 1018.89 1019.45 1020.00 1020.54 1021.09 1021.65 1022.22 1022.80 1023.36 1023.90 1024.40 1024.86 1025.27 1025.64 1025.98 1026.30 1026.60 1026.89 1027.15 1027.39 1027.59 1027.73 1027.81 1027.82 1027.78 1027.69 1027.57 1027.43 1027.29 1027.14 1027.00
1016.09 1016.05 1015.97 1015.87 1015.75 1015.61 1015.45 1015.30 1015.17 1015.08 1015.07 1015.15 1015.34 1015.65 1016.05 1016.54 1017.09 1017.68 1018.29 1018.90 1019.52 1020.13 1020.76 1021.39 1022.03 1022.66 1023.28 1023.87 1024.41 1024.89 1025.32 1025.69 1026.03 1026.33 1026.62 1026.91 1027.18 1027.43 1027.64 1027.81 1027.92 1027.97 1027.95 1027.87 1027.75 1027.60 1027.43 1027.27 1027.11
1015.91 1015.86 1015.79 1015.69 1015.57 1015.41 1015.22 1015.02 1014.81 1014.65 1014.55 1014.55 1014.68 1014.93 1015.31 1015.80 1016.37 1016.99 1017.64 1018.31 1018.99 1019.68 1020.37 1021.07 1021.77 1022.47 1023.15 1023.79 1024.36 1024.88 1025.32 1025.69 1026.02 1026.31 1026.59 1026.85 1027.12 1027.37 1027.61 1027.80 1027.95 1028.03 1028.04 1027.98 1027.87 1027.72 1027.54 1027.35 1027.18
1015.66 1015.61 1015.56 1015.47 1015.34 1015.16 1014.93 1014.66 1014.38 1014.13 1013.94 1013.86 1013.92 1014.13 1014.49 1014.97 1015.56 1016.22 1016.93 1017.65 1018.39 1019.14 1019.90 1020.67 1021.44 1022.20 1022.94 1023.63 1024.25 1024.80 1025.26 1025.65 1025.97 1026.25 1026.52 1026.77 1027.03 1027.29 1027.54 1027.77 1027.95 1028.06 1028.11 1028.08 1027.98 1027.83 1027.64 1027.44 1027.25
1015.38 1015.35 1015.31 1015.23 1015.10 1014.90 1014.61 1014.27 1013.89 1013.54 1013.25 1013.08 1013.07 1013.23 1013.56 1014.05 1014.65 1015.35 1016.10 1016.88 1017.68 1018.49 1019.31 1020.14 1020.98 1021.81 1022.61 1023.36 1024.05 1024.64 1025.15 1025.56 1025.90 1026.18 1026.44 1026.69 1026.95 1027.21 1027.48 1027.73 1027.95 1028.10 1028.18 1028.18 1028.10 1027.95 1027.75 1027.53 1027.32
1015.13 1015.12 1015.10 1015.03 1014.88 1014.64 1014.29 1013.85 1013.36 1012.88 1012.48 1012.21 1012.11 1012.22 1012.52 1013.00 1013.62 1014.35 1015.14 1015.97 1016.82 1017.68 1018.56 1019.45 1020.35 1021.25 1022.13 1022.96 1023.71 1024.38 1024.94 1025.40 1025.77 1026.08 1026.35 1026.61 1026.88 1027.16 1027.44 1027.72 1027.96 1028.15 1028.26 1028.29 1028.22 1028.08 1027.88 1027.64 1027.40
1014.94 1014.95 1014.95 1014.87 1014.70 1014.39 1013.95 1013.40 1012.78 1012.17 1011.64 1011.25 1011.07 1011.11 1011.38 1011.85 1012.48 1013.24 1014.06 1014.93 1015.82 1016.73 1017.66 1018.60 1019.56 1020.52 1021.47 1022.38 1023.22 1023.97 1024.61 1025.14 1025.57 1025.92 1026.23 1026.52 1026.81 1027.10 1027.41 1027.70 1027.97 1028.19 1028.33 1028.38 1028.34 1028.20 1028.00 1027.75 1027.49
1014.80 1014.84 1014.84 1014.75 1014.53 1014.14 1013.60 1012.91 1012.15 1011.40 1010.73 1010.23 1009.96 1009.94 1010.17 1010.63 1011.28 1012.06 1012.91 1013.82 1014.74 1015.68 1016.64 1017.62 1018.62 1019.64 1020.65 1021.64 1022.56 1023.39 1024.13 1024.74 1025.26 1025.68 1026.05 1026.38 1026.70 1027.02 1027.34 1027.66 1027.95 1028.18 1028.35 1028.43 1028.41 1028.30 1028.11 1027.86 1027.59
1014.69 1014.74 1014.73 1014.61 1014.33 1013.85 1013.19 1012.37 1011.46 1010.57 1009.78 1009.17 1008.82 1008.76 1008.97 1009.43 1010.10 1010.90 1011.78 1012.71 1013.66 1014.62 1015.59 1016.58 1017.60 1018.65 1019.71 1020.75 1021.74 1022.66 1023.49 1024.20 1024.81 1025.32 1025.76 1026.15 1026.51 1026.87 1027.21 1027.55 1027.85 1028.11 1028.30 1028.41 1028.42 1028.34 1028.18 1027.96 1027.71
1014.55 1014.61 1014.58 1014.42 1014.07 1013.49 1012.71 1011.76 1010.72 1009.71 1008.81 1008.14 1007.74 1007.65 1007.87 1008.35 1009.04 1009.87 1010.79 1011.73 1012.69 1013.64 1014.60 1015.58 1016.60 1017.64 1018.71 1019.77 1020.82 1021.81 1022.71 1023.52 1024.22 1024.82 1025.34 1025.80 1026.22 1026.62 1026.99 1027.35 1027.67 1027.95 1028.16 1028.30 1028.36 1028.33 1028.22 1028.06 1027.84
1014.34 1014.39 1014.35 1014.14 1013.71 1013.04 1012.16 1011.10 1009.96 1008.86 1007.91 1007.19 1006.78 1006.71 1006.95 1007.47 1008.21 1009.08 1010.02 1010.97 1011.92 1012.86 1013.78 1014.72 1015.68 1016.69 1017.73 1018.79 1019.85 1020.87 1021.84 1022.72 1023.51 1024.20 1024.81 1025.34 1025.83 1026.27 1026.68 1027.06 1027.40 1027.70 1027.95 1028.13 1028.24 1028.27 1028.24 1028.14 1028.00
1014.03 1014.08 1014.02 1013.77 1013.28 1012.54 1011.57 1010.44 1009.24 1008.09 1007.12 1006.40 1006.02 1005.98 1006.28 1006.86 1007.64 1008.55 1009.51 1010.47 1011.40 1012.30 1013.17 1014.04 1014.93 1015.86 1016.84 1017.86 1018.89 1019.92 1020.92 1021.85 1022.71 1023.49 1024.18 1024.79 1025.34 1025.84 1026.29 1026.70 1027.07 1027.39 1027.67 1027.90 1028.07 1028.17 1028.22 1028.20 1028.14
1013.65 1013.71 1013.64 1013.36 1012.83 1012.04 1011.02 1009.84 1008.61 1007.46 1006.50 1005.82 1005.49 1005.51 1005.87 1006.51 1007.34 1008.29 1009.26 1010.21 1011.11 1011.95 1012.75 1013.54 1014.34 1015.18 1016.08 1017.03 1018.01 1019.02 1020.02 1020.98 1021.88 1022.72 1023.48 1024.17 1024.79 1025.35 1025.85 1026.30 1026.70 1027.06 1027.37 1027.64 1027.86 1028.04 1028.16 1028.23 1028.26
1013.26 1013.34 1013.27 1012.98 1012.42 1011.59 1010.54 1009.35 1008.13 1007.00 1006.08 1005.46 1005.19 1005.28 1005.70 1006.39 1007.25 1008.21 1009.18 1010.10 1010.96 1011.74 1012.47 1013.17 1013.88 1014.63 1015.43 1016.30 1017.23 1018.19 1019.17 1020.14 1021.07 1021.96 1022.78 1023.53 1024.22 1024.84 1025.39 1025.89 1026.33 1026.72 1027.07 1027.37 1027.64 1027.86 1028.05 1028.19 1028.29
1012.93 1013.04 1012.97 1012.66 1012.08 1011.24 1010.17 1008.99 1007.78 1006.70 1005.84 1005.28 1005.08 1005.23 1005.69 1006.40 1007.27 1008.22 1009.15 1010.04 1010.84 1011.57 1012.22 1012.85 1013.49 1014.15 1014.88 1015.68 1016.54 1017.46 1018.41 1019.36 1020.31 1021.22 1022.09 1022.90 1023.65 1024.33 1024.94 1025.49 1025.97 1026.40 1026.77 1027.10 1027.39 1027.64 1027.86 1028.05 1028.20
1012.70 1012.83 1012.75 1012.43 1011.82 1010.95 1009.88 1008.71 1007.54 1006.51 1005.71 1005.22 1005.07 1005.26 1005.74 1006.45 1007.29 1008.19 1009.08 1009.91 1010.65 1011.32 1011.92 1012.50 1013.08 1013.70 1014.38 1015.13 1015.95 1016.82 1017.74 1018.68 1019.62 1020.55 1021.45 1022.30 1023.10 1023.84 1024.51 1025.11 1025.63 1026.09 1026.48 1026.82 1027.12 1027.38 1027.60 1027.80 1027.96
1012.57 1012.69 1012.58 1012.21 1011.56 1010.67 1009.59 1008.44 1007.32 1006.34 1005.61 1005.19 1005.09 1005.30 1005.77 1006.45 1007.24 1008.07 1008.88 1009.64 1010.32 1010.93 1011.50 1012.05 1012.62 1013.23 1013.90 1014.63 1015.42 1016.27 1017.16 1018.08 1019.01 1019.94 1020.86 1021.74 1022.58 1023.37 1024.09 1024.74 1025.30 1025.79 1026.19 1026.53 1026.82 1027.05 1027.25 1027.43 1027.57
1012.46 1012.52 1012.35 1011.90 1011.19 1010.26 1009.18 1008.05 1006.99 1006.09 1005.45 1005.09 1005.04 1005.28 1005.74 1006.36 1007.08 1007.83 1008.55 1009.22 1009.84 1010.41 1010.96 1011.51 1012.09 1012.72 1013.41 1014.15 1014.95 1015.80 1016.67 1017.58 1018.49 1019.41 1020.33 1021.23 1022.10 1022.93 1023.69 1024.38 1024.98 1025.48 1025.90 1026.23 1026.49 1026.69 1026.84 1026.97 1027.07
1012.23 1012.19 1011.90 1011.35 1010.56 1009.59 1008.52 1007.44 1006.47 1005.68 1005.15 1004.90 1004.92 1005.19 1005.65 1006.23 1006.88 1007.53 1008.16 1008.74 1009.29 1009.82 1010.36 1010.93 1011.54 1012.21 1012.94 1013.72 1014.55 1015.40 1016.28 1017.17 1018.07 1018.97 1019.88 1020.78 1021.66 1022.51 1023.30 1024.02 1024.65 1025.17 1025.59 1025.91 1026.14 1026.29 1026.40 1026.46 1026.51
Thickness
5688 5691 5695 5695 5690 5685 5683 5683 5682 5675 5674 5671 5671 5675 5679 5676 5674 5667 5652 5653 5654 5656 5657 5658 5660 5662 5664 5666 5668 5669 5671 5672 5674 5675 5677 5678 5680 5681 5683 5684 5685 5687 5688 5689 5689 5690 5691 5691 5692
5686 5688 5690 5689 5683 5679 5679 5679 5674 5672 5668 5663 5662 5665 5667 5662 5655 5651 5648 5647 5649 5651 5652 5654 5655 5657 5659 5661 5662 5664 5665 5666 5668 5670 5671 5673 5674 5676 5677 5679 5680 5681 5682 5683 5684 5685 5685 5686 5687
5682 5684 5683 5680 5677 5681 5679 5672 5669 5660 5658 5658 5656 5655 5656 5653 5646 5644 5642 5642 5644 5646 5648 5649 5650 5652 5653 5655 5657 5658 5660 5661 5662 5664 5665 5667 5668 5670 5671 5672 5673 5675 5675 5677 5678 5679 5680 5681 5682
5679 5678 5676 5672 5669 5669 5669 5664 5660 5654 5650 5650 5652 5649 5643 5638 5638 5637 5635 5637 5639 5640 5641 5643 5644 5646 5648 5649 5651 5653 5654 5655 5656 5657 5659 5660 5662 5663 5665 5666 5667 5668 5670 5671 5672 5674 5675 5676 5677
5674 5672 5665 5661 5662 5659 5656 5654 5652 5653 5649 5645 5646 5645 5639 5630 5630 5630 5630 5631 5633 5634 5635 5636 5638 5640 5641 5643 5644 5646 5647 5648 5649 5650 5652 5653 5655 5656 5658 5659 5660 5662 5663 5665 5666 5667 5669 5670 5671
5665 5665 5661 5660 5658 5651 5648 5645 5645 5646 5643 5638 5638 5639 5634 5625 5624 5624 5624 5625 5627 5627 5628 5630 5631 5632 5634 5635 5636 5638 5639 5641 5642 5643 5644 5646 5647 5649 5650 5652 5654 5655 5657 5658 5660 5661 5662 5664 5665
5658 5656 5656 5657 5652 5647 5643 5639 5640 5640 5637 5633 5633 5634 5627 5620 5617 5617 5617 5618 5620 5621 5622 5623 5624 5625 5626 5627 5628 5629 5631 5632 5633 5635 5636 5638 5640 5641 5643 5644 5646 5648 5650 5651 5653 5654 5656 5657 5658
5652 5649 5644 5646 5645 5645 5636 5630 5630 5631 5630 5624 5624 5628 5625 5616 5610 5610 5610 5612 5613 5614 5615 5616 5617 5618 5619 5620 5620 5621 5622 5623 5625 5626 5628 5630 5631 5633 5635 5636 5638 5640 5642 5643 5645 5647 5648 5650 5651
5642 5640 5642 5642 5640 5638 5627 5623 5618 5616 5617 5613 5612 5614 5611 5607 5603 5603 5604 5605 5606 5607 5608 5609 5609 5610 5611 5612 5612 5613 5613 5614 5616 5618 5619 5621 5624 5625 5627 5628 5629 5631 5633 5635 5637 5639 5641 5642 5644
5634 5634 5636 5630 5630 5628 5619 5618 5613 5610 5611 5608 5605 5600 5598 5597 5597 5598 5599 5600 5600 5600 5600 5600 5601 5602 5603 5605 5605 5605 5605 5606 5608 5609 5611 5613 5615 5616 5618 5619 5621 5623 5625 5627 5629 5631 5633 5635 5637
5621 5623 5619 5613 5612 5613 5610 5607 5605 5608 5609 5610 5606 5598 5592 5591 5591 5592 5593 5593 5592 5592 5592 5592 5592 5594 5595 5596 5597 5597 5597 5597 5599 5601 5602 5604 5606 5608 5609 5611 5612 5614 5617 5619 5620 5623 5625 5627 5629
5607 5603 5602 5602 5597 5599 5600 5598 5596 5598 5604 5600 5598 5592 5586 5585 5585 5585 5585 5584 5584 5584 5584 5583 5584 5585 5586 5587 5588 5589 5589 5589 5590 5591 5593 5596 5597 5599 5600 5602 5603 5605 5607 5609 5612 5614 5616 5619 5621
5599 5592 5587 5585 5584 5586 5587 5587 5589 5590 5588 5585 5583 5580 5579 5578 5578 5577 5576 5576 5575 5575 5575 5575 5575 5576 5577 5578 5579 5580 5580 5581 5581 5582 5584 5586 5588 5590 5591 5592 5593 5595 5597 5599 5602 5605 5607 5610 5612
5586 5582 5579 5577 5577 5576 5577 5578 5577 5584 5578 5575 5573 5572 5570 5569 5569 5568 5567 5567 5567 5567 5566 5566 5566 5567 5568 5569 5570 5571 5571 5572 5572 5573 5574 5576 5578 5580 5581 5582 5584 5585 5587 5589 5592 5595 5598 5601 5603
5574 5576 5575 5572 5570 5568 5567 5576 5575 5576 5568 5567 5565 5563 5562 5561 5560 5560 5560 5559 5559 5558 5558 5557 5557 5558 5559 5560 5561 5562 5562 5563 5563 5564 5564 5565 5567 5569 5570 5572 5573 5574 5576 5578 5582 5585 5588 5591 5593
5570 5575 5580 5572 5562 5558 5562 5584 5578 5564 5559 5560 5558 5556 5554 5553 5552 5552 5551 5551 5550 5549 5549 5549 5549 5549 5550 5551 5551 5552 5553 5553 5554 5555 5555 5555 5556 5557 5559 5560 5561 5563 5565 5568 5571 5574 5577 5580 5583
5568 5574 5578 5569 5555 5551 5555 5573 5566 5551 5550 5551 5550 5548 5547 5546 5545 5544 5543 5542 5541 5541 5540 5540 5540 5540 5540 5540 5541 5542 5543 5543 5544 5544 5545 5545 5545 5545 5547 5548 5549 5551 5553 5556 5559 5562 5565 5568 5571
5568 5568 5566 5565 5550 5542 5546 5557 5556 5544 5540 5543 5543 5542 5540 5539 5539 5536 5534 5533 5532 5531 5530 5530 5530 5530 5530 5530 5531 5532 5533 5533 5533 5534 5534 5534 5534 5534 5535 5536 5538 5539 5542 5544 5546 5550 5552 5556 5559
5550 5550 5554 5552 5535 5532 5541 5547 5550 5541 5535 5536 5536 5535 5534 5533 5531 5527 5525 5523 5522 5521 5520 5521 5520 5520 5519 5520 5522 5523 5524 5524 5523 5523 5523 5523 5523 5523 5524 5525 5526 5527 5530 5531 5534 5537 5540 5543 5547
5535 5537 5542 5535 5519 5519 5526 5535 5541 5537 5533 5532 5531 5531 5528 5525 5522 5518 5515 5514 5512 5511 5510 5510 5510 5510 5509 5510 5511 5512 5514 5514 5513 5512 5511 5512 5512 5512 5513 5513 5515 5516 5517 5519 5521 5524 5527 5530 5533
5523 5526 5528 5522 5510 5504 5505 5537 5539 5534 5526 5523 5522 5522 5521 5518 5515 5511 5507 5505 5503 5501 5500 5499 5499 5498 5498 5498 5498 5500 5501 5501 5501 5502 5501 5501 5502 5502 5502 5503 5504 5504 5506 5507 5509 5511 5513 5517 5520
5518 5510 5505 5499 5502 5513 5501 5528 5540 5526 5519 5518 5517 5514 5513 5509 5506 5503 5499 5496 5494 5491 5489 5487 5486 5486 5486 5485 5487 5488 5492 5494 5494 5492 5492 5491 5491 5492 5491 5492 5493 5494 5494 5495 5497 5498 5500 5503 5507
5499 5490 5489 5487 5488 5491 5491 5494 5535 5514 5516 5516 5511 5507 5503 5500 5496 5493 5490 5486 5483 5480 5478 5476 5474 5474 5473 5473 5475 5476 5479 5481 5482 5481 5480 5480 5480 5480 5480 5480 5481 5482 5483 5484 5485 5486 5487 5490 5493
5477 5477 5475 5475 5479 5489 5493 5491 5527 5523 5515 5511 5503 5496 5492 5489 5485 5482 5478 5475 5472 5469 5467 5465 5464 5463 5462 5462 5462 5464 5466 5467 5468 5469 5469 5469 5469 5469 5469 5469 5470 5470 5471 5472 5473 5474 5475 5477 5479
5469 5479 5490 5492 5492 5503 5473 5476 5506 5509 5500 5494 5490 5486 5481 5477 5474 5471 5468 5465 5463 5460 5457 5454 5453 5452 5451 5451 5451 5452 5453 5454 5456 5458 5458 5458 5458 5458 5458 5458 5458 5459 5459 5460 5460 5461 5462 5464 5466
5462 5470 5484 5490 5500 5505 5463 5478 5502 5492 5483 5477 5473 5471 5469 5466 5463 5460 5457 5454 5452 5449 5446 5444 5442 5441 5440 5440 5440 5440 5441 5442 5444 5445 5446 5446 5446 5446 5446 5445 5446 5447 5447 5447 5447 5448 5449 5451 5452
5453 5457 5457 5462 5458 5462 5487 5481 5484 5481 5474 5468 5464 5460 5458 5455 5452 5448 5444 5442 5440 5438 5435 5433 5431 5431 5430 5428 5428 5429 5429 5429 5431 5432 5432 5432 5432 5433 5433 5433 5432 5433 5434 5434 5434 5435 5436 5437 5439
5436 5441 5440 5448 5458 5473 5487 5481 5490 5478 5471 5462 5457 5453 5448 5443 5439 5435 5432 5430 5429 5427 5424 5421 5420 5420 5419 5417 5417 5417 5417 5417 5418 5418 5418 5419 5419 5418 5419 5419 5419 5419 5420 5421 5421 5422 5423 5424 5426
5423 5423 5429 5439 5444 5459 5472 5488 5477 5468 5458 5451 5446 5439 5434 5430 5426 5423 5420 5417 5415 5414 5412 5411 5410 5409 5408 5407 5406 5405 5405 5404 5404 5405 5405 5405 5405 5405 5406 5406 5406 5405 5406 5407 5408 5409 5410 5411 5413
5416 5422 5423 5431 5433 5430 5447 5467 5451 5444 5437 5431 5427 5422 5418 5416 5414 5411 5407 5405 5403 5402 5401 5400 5399 5398 5397 5396 5394 5394 5393 5393 5392 5392 5392 5392 5391 5392 5392 5392 5392 5392 5392 5394 5395 5397 5397 5398 5400